THORAD AGENA D DEB

基本信息
目录编号:
27725
目录名称:
THORAD AGENA D DEB
国际标识:
1969-082LH
轨道中心:
EARTH
物体状态:
已陨落(2024-01-30)
发射日期:
1969-09-30 UTC
轨道信息
数据来源: 国际轨道数据
星历时间: 2024-01-27T15:01:08+0800
半长轴: 6603.821km
偏心率: 0.0006029
轨道倾角: 69.951°
近地点辐角: 251.740°
升交点赤经: 238.129°
平近点角: 108.317°
近地点: 221.704km
远地点: 229.668km
周期: 89.013分钟
每日圈数: 16.177443
详细信息
发射场:
AFWTR
轨道高度:
LEO
数据来源:
AOE Integration Group
参考系:
TEME
时间系统:
UTC
历元类型:
SGP4
2D轨道图
3D轨道图
轨道高度分析图
轨道倾角分析图
轨道综合分析图
查看轨道综合分析图